TimeCST,TemperatureF,Dew PointF,Humidity,Sea Level PressureIn,VisibilityMPH,Wind Direction,Wind SpeedMPH,Gust SpeedMPH,PrecipitationIn,Events,Conditions,WindDirDegrees,DateUTC
12:44 AM,64.4,57.2,77,29.92,10.0,South,16.1,25.3,N/A,,Overcast,190,2013-01-29 06:44:00
12:53 AM,64.0,57.9,80,29.88,10.0,South,15.0,27.6,N/A,,Overcast,180,2013-01-29 06:53:00
1:53 AM,64.0,57.9,80,29.87,10.0,South,11.5,21.9,N/A,,Overcast,190,2013-01-29 07:53:00
2:53 AM,64.0,57.9,80,29.86,10.0,South,13.8,19.6,N/A,,Overcast,190,2013-01-29 08:53:00
3:29 AM,64.4,57.2,77,29.88,10.0,South,16.1,23.0,N/A,,Overcast,180,2013-01-29 09:29:00
3:53 AM,64.0,57.9,80,29.84,10.0,South,12.7,23.0,N/A,,Overcast,180,2013-01-29 09:53:00
4:18 AM,64.4,57.2,77,29.86,10.0,South,15.0,24.2,N/A,,Overcast,180,2013-01-29 10:18:00
4:53 AM,64.0,57.9,80,29.83,10.0,South,13.8,25.3,N/A,,Overcast,180,2013-01-29 10:53:00
5:53 AM,64.0,57.9,80,29.82,10.0,South,12.7,-,N/A,,Overcast,190,2013-01-29 11:53:00
6:53 AM,64.0,57.9,80,29.81,10.0,South,17.3,27.6,N/A,,Overcast,180,2013-01-29 12:53:00
7:53 AM,63.0,57.9,84,29.79,10.0,South,15.0,25.3,N/A,,Overcast,180,2013-01-29 13:53:00
8:29 AM,62.6,57.2,82,29.80,9.0,South,17.3,24.2,N/A,,Overcast,180,2013-01-29 14:29:00
8:53 AM,62.1,57.9,86,29.78,8.0,South,13.8,23.0,N/A,,Overcast,180,2013-01-29 14:53:00
9:53 AM,62.1,57.9,86,29.75,9.0,South,16.1,28.8,N/A,,Overcast,190,2013-01-29 15:53:00
10:49 AM,62.6,57.2,82,29.75,10.0,South,16.1,26.5,N/A,,Overcast,180,2013-01-29 16:49:00
10:53 AM,63.0,57.9,84,29.73,10.0,South,16.1,24.2,N/A,,Overcast,190,2013-01-29 16:53:00
11:53 AM,63.0,59.0,87,29.69,7.0,South,18.4,25.3,N/A,,Overcast,180,2013-01-29 17:53:00
12:22 PM,62.6,59.0,88,29.68,3.0,South,18.4,26.5,N/A,,Overcast,170,2013-01-29 18:22:00
12:53 PM,62.1,59.0,90,29.63,6.0,South,15.0,25.3,N/A,,Overcast,180,2013-01-29 18:53:00
1:07 PM,62.6,59.0,88,29.63,7.0,South,17.3,25.3,N/A,,Overcast,170,2013-01-29 19:07:00
1:53 PM,63.0,59.0,87,29.59,9.0,South,16.1,23.0,N/A,,Overcast,170,2013-01-29 19:53:00
2:53 PM,63.0,59.0,87,29.55,10.0,SSE,15.0,25.3,N/A,,Overcast,160,2013-01-29 20:53:00
3:37 PM,62.6,59.0,88,29.56,4.0,SSE,18.4,25.3,0.02,Rain-Thunderstorm,Light Thunderstorms and Rain,160,2013-01-29 21:37:00
3:49 PM,62.6,59.0,88,29.56,1.8,South,17.3,24.2,0.09,Rain-Thunderstorm,Heavy Thunderstorms and Rain,190,2013-01-29 21:49:00
3:53 PM,63.0,59.0,87,29.55,1.2,South,15.0,24.2,0.13,Rain-Thunderstorm,Thunderstorms and Rain,180,2013-01-29 21:53:00
3:58 PM,62.6,60.8,94,29.56,1.0,South,13.8,21.9,0.09,Rain-Thunderstorm,Heavy Thunderstorms and Rain,180,2013-01-29 21:58:00
4:07 PM,62.6,60.8,94,29.56,2.5,South,15.0,20.7,0.11,Rain-Thunderstorm,Light Thunderstorms and Rain,180,2013-01-29 22:07:00
4:10 PM,62.6,60.8,94,29.55,4.0,South,11.5,20.7,0.11,Rain-Thunderstorm,Light Thunderstorms and Rain,170,2013-01-29 22:10:00
4:37 PM,62.6,60.8,94,29.54,2.0,South,15.0,19.6,0.15,Rain-Thunderstorm,Light Rain,170,2013-01-29 22:37:00
4:40 PM,62.6,60.8,94,29.54,4.0,South,16.1,21.9,0.15,Rain,Light Rain,170,2013-01-29 22:40:00
4:53 PM,62.1,60.1,93,29.49,10.0,SSE,11.5,20.7,0.16,,Overcast,160,2013-01-29 22:53:00
5:53 PM,63.0,60.1,90,29.44,10.0,South,18.4,31.1,0.00,Thunderstorm,Overcast,170,2013-01-29 23:53:00
6:07 PM,62.6,60.8,94,29.45,7.0,South,15.0,28.8,0.01,Rain-Thunderstorm,Light Rain,170,2013-01-30 00:07:00
6:20 PM,57.2,55.4,94,29.53,2.5,NW,24.2,36.8,0.12,Rain-Thunderstorm,Rain,310,2013-01-30 00:20:00
6:23 PM,53.6,51.8,94,29.51,1.5,NW,13.8,36.8,0.18,Rain,Heavy Rain,320,2013-01-30 00:23:00
6:30 PM,53.6,50.0,88,29.51,1.2,NW,15.0,27.6,0.33,Rain-Thunderstorm,Heavy Rain,320,2013-01-30 00:30:00
6:36 PM,51.8,50.0,94,29.51,1.0,NNW,21.9,32.2,0.49,Rain-Thunderstorm,Heavy Rain,330,2013-01-30 00:36:00
6:40 PM,53.6,50.0,88,29.50,1.2,NNW,15.0,32.2,0.52,Rain-Thunderstorm,Thunderstorms and Rain,330,2013-01-30 00:40:00
6:44 PM,53.6,50.0,88,29.51,2.5,NNW,12.7,27.6,0.53,Rain-Thunderstorm,Heavy Thunderstorms and Rain,330,2013-01-30 00:44:00
6:48 PM,53.6,50.0,88,29.53,4.0,NW,16.1,23.0,0.54,Rain-Thunderstorm,Light Thunderstorms and Rain,320,2013-01-30 00:48:00
6:53 PM,53.1,50.0,89,29.52,8.0,NW,12.7,21.9,0.54,Rain-Thunderstorm,Light Thunderstorms and Rain,320,2013-01-30 00:53:00
7:29 PM,53.6,51.8,94,29.54,4.0,NNW,10.4,16.1,0.10,Rain,Heavy Rain,340,2013-01-30 01:29:00
7:53 PM,53.1,50.0,89,29.54,9.0,NNW,6.9,-,0.14,Rain,Light Rain,330,2013-01-30 01:53:00
8:20 PM,53.6,51.8,94,29.55,6.0,North,5.8,-,0.04,Rain-Thunderstorm,Rain,350,2013-01-30 02:20:00
8:35 PM,51.8,50.0,94,29.55,5.0,North,5.8,-,0.09,Rain,Heavy Rain,10,2013-01-30 02:35:00
8:53 PM,52.0,50.0,93,29.51,9.0,North,4.6,-,0.13,Rain,Light Rain,10,2013-01-30 02:53:00
9:53 PM,52.0,48.9,89,29.51,10.0,East,5.8,-,0.02,,Overcast,80,2013-01-30 03:53:00
10:53 PM,51.1,48.9,92,29.50,6.0,Calm,Calm,-,0.06,Rain,Light Rain,0,2013-01-30 04:53:00
11:53 PM,51.1,48.9,92,29.53,4.0,South,5.8,-,0.08,Rain,Rain,180,2013-01-30 05:53:00